Погода в Бряндином

Россия / Ульяновская область     54°22′58″N   49°22′18″E
темп.,
°C
ветер,
м/с
пор.,
м/с
влажн.,
%
обл.,
%
осадки,
мм/ч
давл.,
гПа
погр.,
м
14 июня, пн
пн1401:00+15ю2290100 0.0 101426
04:00+15ю2390100 0.0 101446
07:00+18ю128597 0.0 101588
10:00+22з236997 0.0 1016462
13:00+25зсз2256100 0.0 1015879
16:00+25зсз225464 0.0 10151038
19:00+22ссз2374100 0.0 101485
22:00+18зсз3596100 5.3 101696
15 июня, вт
вт1501:00+18ссв2390100 0.4 101542
04:00+17зюз119299 1.2 101412
07:00+17ссв2295100 2.4 101545
10:00+19всв239179 4.3 1015212
13:00+24вюв446893 0.0 1014866
16:00+26вюв445845 0.0 10131239
19:00+24в377414 0.0 1012371
22:00+20всв4119082 0.0 1010226
16 июня, ср
ср1601:00+19в41282100 0.0 1009226
04:00+18в4117683 0.0 1008210
07:00+19вюв487892 0.1 1007230
10:00+23ююв5767100 0.2 1007583
13:00+23ю586975 0.0 1007797
16:00+25ю676130 0.0 10071286
19:00+23ююз47765 0.0 1006486
22:00+19юз3493100 0.2 100677
17 июня, чт
чт1701:00+15ссз5129714 1.4 1009413
04:00+15ссз6129768 1.4 1011556
07:00+15ссз613850 0.0 1014718
10:00+19ссз710540 0.0 10151386
13:00+20ссз710480 0.0 10161741
16:00+21с794913 0.0 10172291
19:00+19с48592 0.0 1018886
22:00+16ссз247077 0.0 101981
18 июня, пт
пт1801:00+13ссз34794 0.0 102056
04:00+11с39821 0.0 1022169
07:00+15с37700 0.0 1023257
10:00+19с47510 0.0 10231102
13:00+21с464221 0.0 10241946
16:00+22ссз35452 0.0 10231859
19:00+20ссз36605 0.0 1024377
22:00+15ссз22755 0.0 102511